User: anonymous   Login
Location: Dunedin
(45.8670°S, 170.5000°E)
Time: 07:03:45
(UTC+13:00)
Language:

SL-08 RB Rocket - Orbit

View from above orbital plane
View from above orbital plane
View from above satellite
View from above satellite

Ground track
Ground track

The orbit data is extracted from the following two-line orbital elements,

1 26387U 00033D   19339.39295626  .00000100  00000-0  25340-4 0  9998
2 26387  97.8472  24.0763 0026108 349.8758  20.4264 14.68507787 40137
Epoch (UTC): 05 December 2019 09:25:51
Eccentricity: 0.0026108
inclination: 97.8472°
perigee height: 647 km
apogee height: 684 km
right ascension of ascending node: 24.0763°
argument of perigee: 349.8758°
revolutions per day: 14.68507787
mean anomaly at epoch: 20.4264°
orbit number at epoch: 4013

The dashed part of the orbit path shows where the satellite is in the earth's shadow,  

DLR